OBJECT E, 61898

Orbit data source: Space-Track

You're viewing an Uncataloged Satellite

Recently launched and/or uncataloged satellites may have evolving metadata. Metadata may include but not limited to: Owner, Maufacturer, Bus, Motor, and Mission.

OBJECT E, 61898 is a Chinese satellite in SSO that was launched on Mon, 11 Nov 2024 UTC via a LIJIAN-1 launch vehicle from the Jiuquan Satellite Launch Center, China (JSC). Unknown objects in Earth's orbit typically refer to objects detected orbiting the Earth but have not yet been identified or cataloged. These objects could be anything from previously untracked satellites, spent rocket stages, debris from satellite collisions, or even natural meteoroids temporarily captured by Earth's gravity.

Loading next visibility...
Identifier
61898, 2024-205E
Orbit
SSO
Country
Flag of CNCN / PRC
Related business
None
Manufacturer
Unknown
Mission
Operational Commercial Meteo Radio Occ.
Bus & Motor
Unknown
Mass
Unknown
Launch date (UTC)
2024-11-11 (1 year ago)
Launch vehicle
LIJIAN-1
Launch site
Jiuquan Satellite Launch Center, China (JSC)
Object type
Unknown
Shape & HBR
Box + 1 Pan, 2.5 m
Radar Cross Section
5.339 m², Medium (>0.1 m² and < 1m²)

Expand to show TLE details & history
Last TLE update: 6 days ago

TLE from 6 days ago
0 OBJECT E
1 61898U 24205E   26032.09149839  .00012027  00000-0  53555-3 0  9999
2 61898  97.4272 106.6482 0025603 142.4756 217.8273 15.21303249 67651
Epoch: 2026-02-01T02:11Z
TLE epoch observation values (Epoch: 2026-02-01T02:11:45.460Z)
Latitude
-0.00006°
Longitude
-57.59732°
Altitude
518.934 km
Speed
7.596 km/s
True Right ascension
07h 06m 35s
True Declination
0° 00' 00"
Sunlit
Object was in full shadow at epoch
Visualization orbit readout
Latitude
Unknown
Longitude
Unknown
Altitude
Unknown
Speed
Unknown
Apparent Right ascension
Unknown
Apparent Declination
Unknown
Sunlit
N/A
Visualization observer readout
Local Sidereal Time
00:28:43
Azimuth
Unknown
Elevation
Unknown
Doppler factor
Unknown
Orbital elements
Apogee altitude
516.481 km
Perigee altitude
481.266 km
Semi-major axis
6,877.011 km
Eccentricity
0.00256
Inclination
97.4272°
RAAN
106.6482°
Arg. of periapsis
142.4756°
True anomaly
217.64782°
Mean anomaly
217.8273°
Eccentric anomaly
217.73752°
Mean motion
3.80578 °/min
Orbital period
94.59 mins
BSTAR
0.00053555
Loading maneuver chart data...
Computing Atmospheric mass density...
Loading historical data...
Loading historical data...
Loading historical data...
Loading historical data...
Loading historical data...
Loading historical data...
Loading historical data...

Documentation

Showing up to 5 results
|